Wind_Speed
25 24 22 21 21 21 20 20 19 17 16 15 14 13 12 11 9 8 8 6 6 5 4 3 3 3 4 5 5 6 6 6 6 6 5 5 4 4 4 4 4 4 5
29 27 26 25 24 24 23 22 21 20 20 18 17 16 15 15 13 12 12 11 9 9 8 7 7 7 7 7 7 8 8 8 8 8 8 8 7 7 7 7 7 7 8
32 32 30 28 27 27 26 25 24 23 22 20 19 19 18 17 17 16 15 15 14 13 12 11 11 10 10 10 10 10 10 10 10 10 10 10 10 10 11 11 11 11 11
34 33 32 32 30 29 28 28 27 25 24 22 21 21 20 19 19 19 18 18 18 17 16 15 14 14 13 13 13 13 13 13 12 12 12 12 12 12 13 13 14 14 14
38 36 34 34 35 33 31 30 29 28 26 24 23 22 21 21 20 20 20 20 20 21 20 19 18 17 17 16 16 15 15 15 15 14 14 14 14 14 14 15 15 15 15
43 40 37 36 36 36 34 32 31 31 29 26 25 23 22 22 21 21 21 21 21 22 23 23 22 21 20 19 19 18 17 17 17 17 16 16 15 15 15 15 16 16 16
48 46 43 40 38 38 36 35 34 33 32 29 26 24 23 23 23 22 22 23 22 23 24 24 24 23 23 22 22 21 20 19 19 18 18 18 17 17 17 16 16 17 17
50 49 47 44 42 40 38 37 36 34 33 31 29 26 24 23 23 23 22 23 23 23 24 25 25 25 24 24 24 23 23 22 21 20 20 19 19 19 18 18 18 18 18
51 50 48 46 45 43 39 36 35 34 33 31 29 27 25 24 24 23 22 23 24 24 25 26 26 25 25 24 24 25 25 24 23 22 21 21 21 20 20 20 19 19 19
49 49 47 47 45 43 40 39 35 33 32 31 29 27 27 26 25 24 23 23 24 24 25 26 26 26 25 25 25 25 25 25 24 24 23 23 22 22 22 22 21 21 21
45 45 46 45 45 43 42 41 39 35 32 31 28 27 26 25 25 25 24 23 23 25 26 25 26 27 26 25 26 26 26 25 25 25 25 24 24 23 23 23 23 23 22
39 40 42 42 42 41 40 40 38 36 34 32 30 27 26 25 25 24 24 24 25 26 26 26 27 27 27 26 25 27 27 25 25 26 26 26 26 25 25 25 24 24 24
33 35 37 39 38 38 38 38 36 35 34 33 31 30 28 27 27 26 25 24 25 26 27 29 29 28 29 28 26 26 26 26 26 27 27 27 27 27 27 26 26 26 26
28 31 33 36 36 36 37 37 35 34 34 33 32 31 30 30 29 28 28 27 27 26 26 28 30 31 30 30 28 28 29 29 29 28 29 29 28 29 28 28 28 28 28
21 24 28 32 35 35 35 35 35 34 34 34 32 31 31 31 31 30 30 29 28 28 27 27 28 29 30 31 31 31 31 31 31 30 30 30 30 30 30 30 30 29 29
15 19 23 26 29 31 32 33 34 34 34 33 32 31 32 32 32 31 31 30 30 29 28 28 28 28 29 30 31 32 32 33 33 32 31 31 31 31 31 31 31 31 30
9 12 16 20 23 25 28 30 33 33 34 33 33 33 33 34 33 33 33 33 32 32 31 30 30 30 30 30 30 32 33 33 33 33 31 31 31 32 32 31 30 30 29
7 8 10 13 17 20 23 26 28 31 32 33 34 34 34 35 36 36 36 35 34 34 33 32 32 31 31 30 30 31 32 32 32 32 32 31 30 29 29 29 28 27 26
8 8 9 11 13 16 19 22 24 26 29 31 32 34 35 36 37 38 38 38 38 37 36 34 33 31 30 30 30 30 30 30 29 30 30 29 29 27 27 27 26 25 23
10 9 9 10 11 13 15 18 20 22 25 27 29 31 32 34 36 37 38 38 38 38 37 35 34 33 31 29 28 28 27 27 27 26 26 26 26 25 24 23 22 21 20
12 11 10 10 11 12 14 15 18 20 22 23 25 27 28 29 31 32 33 34 35 36 36 35 33 32 31 30 28 26 25 24 24 24 23 23 22 21 20 19 18 17 16
14 14 13 12 12 12 14 15 17 18 20 21 22 23 23 24 25 27 28 29 30 30 31 31 30 30 31 29 26 25 24 23 22 22 21 19 17 17 16 16 15 14 14
16 16 15 15 14 14 14 15 17 19 19 20 20 21 20 21 21 22 22 22 23 23 25 26 27 26 27 26 24 23 23 22 21 20 19 17 16 15 14 13 13 12 13
18 18 18 17 16 16 15 16 17 18 19 20 20 19 18 18 18 19 19 19 20 20 21 22 23 23 23 23 22 20 20 20 19 18 16 15 14 13 12 11 11 11 11
20 20 20 19 19 18 17 16 16 16 17 17 18 18 17 16 15 16 17 18 17 17 18 19 20 20 20 20 20 20 19 19 17 16 14 13 13 12 11 10 10 9 9
23 22 21 21 21 21 18 16 15 14 13 14 15 15 15 15 14 14 15 15 15 14 15 17 18 18 18 17 17 17 17 16 15 13 12 11 11 10 9 8 7 6 6
Wind_Direction
250 246 240 240 242 243 245 245 244 243 241 238 237 238 239 240 237 241 248 248 252 256 262 271 283 298 305 312 319 322 324 327 328 326 323 319 312 304 295 290 287 283 283
250 248 244 241 242 243 243 245 244 243 243 241 240 239 240 243 243 242 248 250 252 256 259 264 270 277 284 290 296 301 304 308 311 312 310 305 300 295 292 289 287 285 281
255 251 247 244 243 243 243 244 245 244 243 243 243 243 243 244 247 245 248 252 253 253 256 260 265 270 276 281 285 288 291 294 298 302 302 301 297 294 292 291 288 286 283
261 258 253 248 246 245 245 244 243 244 243 243 243 245 245 246 247 247 247 251 254 254 254 257 261 265 271 276 280 283 284 285 288 293 296 297 296 294 293 292 290 287 285
263 261 259 256 252 248 245 244 242 243 243 243 243 244 246 247 248 249 249 248 250 253 255 254 257 260 265 270 276 279 281 281 282 285 288 291 293 293 293 293 292 290 288
263 263 261 260 257 251 247 245 242 242 242 242 243 244 246 247 248 250 251 250 250 251 253 254 254 257 261 266 271 275 277 278 279 280 282 285 288 291 292 292 292 292 291
261 260 261 260 258 254 251 249 245 244 240 239 241 243 245 247 248 250 252 252 251 250 250 253 254 256 259 263 267 271 273 275 276 277 278 279 282 286 289 290 291 291 291
260 259 259 258 258 256 254 252 248 245 241 239 239 243 244 246 248 249 251 254 253 251 251 251 252 254 258 261 264 267 270 272 273 275 275 276 278 281 285 288 289 290 290
259 258 258 257 256 255 253 253 251 248 244 241 241 241 242 242 246 249 251 253 253 252 252 252 252 253 256 260 263 265 268 269 270 273 274 274 276 279 282 285 287 289 289
257 256 256 255 255 253 252 251 250 248 245 242 241 241 241 243 245 247 249 252 252 251 251 252 253 253 255 258 263 265 267 267 268 270 270 271 273 276 280 283 286 287 288
255 253 252 253 253 253 252 251 252 250 247 243 243 242 242 244 245 247 248 248 249 250 251 251 253 253 254 256 260 264 265 265 266 267 267 268 270 274 277 281 284 285 285
252 249 248 250 250 251 250 250 252 251 248 244 243 241 241 244 245 245 246 247 247 247 249 249 250 253 255 256 257 260 262 264 265 266 266 266 268 271 274 278 281 283 283
248 245 243 243 245 246 246 247 248 249 248 244 242 241 240 242 243 244 244 246 249 248 248 249 249 252 254 256 257 256 259 262 264 265 265 265 266 268 272 275 278 281 282
247 243 241 240 240 241 242 242 244 246 246 244 243 239 238 239 241 242 242 242 245 249 251 251 253 253 253 254 255 255 257 261 262 264 263 263 264 266 269 271 275 278 280
250 245 242 240 240 241 242 241 241 242 242 242 242 240 240 240 239 241 241 241 243 247 251 253 255 256 258 256 255 255 256 260 260 261 262 262 263 264 266 269 272 275 278
259 251 245 244 243 243 244 242 241 242 243 243 243 243 242 241 241 242 242 243 244 247 250 254 256 258 259 259 257 257 257 258 259 259 260 261 263 264 265 268 271 273 276
277 265 255 251 248 246 245 245 245 246 247 246 245 243 243 243 242 243 243 245 246 248 251 254 257 259 260 261 261 258 257 257 258 257 257 259 262 264 266 268 270 273 275
315 290 277 264 256 251 249 248 248 248 248 248 247 246 244 244 243 243 245 246 248 250 252 254 257 260 260 261 262 260 258 258 257 256 255 258 260 263 265 267 270 272 274
335 317 297 282 270 262 257 254 252 251 250 249 249 248 247 247 246 246 247 248 249 251 253 255 257 258 260 261 261 260 259 256 254 255 256 256 258 260 264 266 267 270 270
350 334 315 297 284 275 267 263 260 258 256 254 254 253 252 250 249 249 250 250 251 252 253 253 255 255 258 261 262 261 257 256 253 252 254 255 257 259 262 264 265 265 267
2 351 335 317 300 288 278 271 266 262 260 259 257 256 254 252 251 250 251 251 250 251 250 251 252 251 253 255 256 254 254 254 251 250 251 252 254 256 258 258 259 262 267
3 356 348 334 318 302 289 279 272 267 264 260 258 257 256 253 251 250 250 250 249 248 248 248 247 247 248 248 248 248 247 246 245 244 243 245 248 250 251 253 257 263 271
358 354 349 340 329 316 303 290 279 272 266 262 258 256 255 252 250 246 246 246 245 244 243 243 242 242 241 241 242 240 239 238 238 238 239 241 244 245 247 251 257 267 274
358 354 350 344 335 325 312 300 289 279 270 262 255 251 249 246 243 240 238 238 237 237 236 234 232 233 235 234 234 232 230 229 231 232 234 234 236 239 242 249 258 266 273
360 356 353 348 342 334 324 311 298 285 272 259 249 243 240 238 235 231 228 227 227 225 223 222 224 224 223 223 223 220 220 221 224 227 227 229 230 232 238 246 254 264 274
4 2 358 354 348 342 332 320 308 292 271 253 240 231 228 224 221 216 211 210 212 211 208 207 210 209 208 205 207 208 212 215 219 221 219 219 222 227 234 240 248 256 264
Height
5893 5895 5897 5898 5899 5901 5902 5903 5904 5905 5905 5906 5907 5908 5909 5910 5911 5911 5911 5912 5913 5913 5914 5914 5915 5915 5916 5916 5916 5917 5917 5918 5918 5918 5918 5919 5919 5919 5920 5920 5920 5921 5921
5886 5889 5891 5892 5895 5896 5897 5898 5899 5900 5901 5902 5903 5904 5906 5907 5908 5909 5909 5910 5911 5912 5912 5913 5914 5914 5915 5915 5916 5916 5917 5917 5917 5917 5918 5918 5918 5918 5918 5919 5919 5919 5919
5879 5882 5884 5887 5888 5890 5891 5893 5894 5896 5897 5898 5899 5901 5902 5903 5904 5906 5907 5907 5908 5909 5910 5911 5912 5912 5913 5914 5914 5915 5915 5916 5916 5916 5916 5916 5916 5917 5917 5917 5917 5917 5917
5871 5874 5877 5879 5882 5883 5885 5886 5888 5890 5892 5893 5895 5896 5897 5899 5900 5901 5903 5904 5905 5906 5907 5908 5909 5910 5911 5912 5912 5913 5913 5914 5914 5914 5915 5914 5915 5915 5915 5915 5915 5915 5915
5863 5866 5869 5871 5874 5877 5878 5879 5882 5884 5886 5888 5889 5891 5892 5894 5895 5896 5898 5900 5901 5902 5903 5905 5906 5907 5908 5909 5910 5910 5911 5912 5912 5912 5913 5913 5912 5912 5912 5912 5912 5912 5912
5855 5858 5861 5862 5865 5868 5871 5872 5874 5876 5879 5882 5884 5886 5887 5889 5890 5891 5893 5894 5896 5898 5899 5900 5902 5903 5904 5906 5906 5907 5908 5909 5909 5910 5910 5910 5910 5910 5910 5910 5909 5909 5909
5846 5848 5851 5854 5856 5860 5863 5865 5866 5869 5872 5875 5878 5880 5881 5883 5885 5886 5887 5888 5891 5893 5894 5896 5897 5899 5900 5901 5902 5903 5904 5905 5906 5906 5907 5907 5907 5907 5907 5907 5906 5906 5906
5834 5837 5841 5844 5847 5851 5854 5857 5859 5861 5863 5866 5870 5872 5875 5877 5878 5880 5881 5883 5884 5887 5889 5890 5892 5894 5895 5897 5898 5899 5900 5901 5901 5902 5903 5903 5904 5904 5904 5904 5903 5903 5902
5822 5826 5829 5833 5837 5841 5845 5848 5851 5853 5856 5858 5862 5865 5867 5869 5871 5873 5875 5877 5879 5881 5883 5885 5887 5889 5891 5892 5893 5894 5895 5896 5897 5898 5898 5899 5899 5900 5900 5900 5899 5899 5898
5809 5813 5818 5822 5827 5831 5835 5839 5843 5845 5848 5851 5853 5857 5860 5862 5864 5866 5869 5871 5872 5875 5877 5879 5881 5883 5885 5887 5887 5888 5890 5891 5892 5893 5893 5894 5895 5895 5896 5896 5895 5895 5894
5796 5801 5806 5812 5816 5821 5826 5830 5833 5837 5839 5842 5845 5848 5851 5854 5857 5859 5861 5864 5866 5868 5870 5872 5874 5876 5879 5882 5883 5883 5884 5885 5886 5887 5888 5889 5890 5890 5891 5891 5891 5890 5890
5786 5790 5795 5801 5806 5811 5816 5820 5824 5828 5831 5834 5837 5840 5843 5846 5849 5852 5854 5856 5859 5861 5863 5866 5868 5870 5872 5875 5877 5877 5878 5879 5880 5881 5883 5884 5884 5885 5886 5886 5886 5885 5885
5776 5780 5785 5790 5796 5801 5806 5810 5814 5818 5822 5825 5828 5831 5835 5838 5841 5844 5847 5849 5851 5854 5857 5859 5861 5863 5865 5868 5870 5871 5872 5873 5874 5875 5876 5877 5878 5879 5880 5880 5880 5880 5879
5768 5771 5776 5780 5786 5791 5795 5799 5804 5808 5811 5814 5818 5821 5825 5828 5832 5835 5838 5841 5844 5847 5849 5852 5854 5856 5858 5861 5863 5864 5865 5867 5868 5869 5870 5871 5872 5873 5874 5874 5874 5874 5874
5763 5765 5768 5772 5777 5781 5785 5789 5794 5798 5801 5805 5808 5811 5815 5819 5823 5826 5830 5833 5837 5840 5842 5844 5847 5849 5850 5853 5855 5856 5858 5860 5861 5862 5863 5864 5865 5866 5867 5867 5868 5868 5868
5759 5761 5763 5766 5769 5773 5776 5780 5784 5788 5791 5795 5799 5802 5806 5810 5813 5818 5821 5825 5828 5832 5834 5837 5839 5841 5843 5845 5847 5848 5851 5852 5853 5855 5856 5857 5858 5859 5860 5861 5861 5861 5861
5758 5758 5759 5761 5764 5767 5770 5773 5776 5779 5783 5787 5790 5794 5798 5801 5805 5809 5812 5816 5820 5823 5826 5829 5831 5833 5835 5837 5839 5841 5843 5844 5845 5847 5848 5850 5851 5852 5853 5853 5854 5854 5854
5757 5757 5757 5758 5760 5762 5764 5767 5769 5772 5775 5778 5782 5785 5789 5792 5796 5800 5803 5807 5810 5814 5817 5820 5823 5825 5827 5829 5831 5833 5835 5836 5838 5839 5841 5842 5844 5845 5845 5846 5847 5847 5847
5757 5756 5756 5757 5757 5758 5759 5761 5763 5765 5767 5770 5773 5776 5779 5783 5786 5790 5794 5797 5801 5804 5808 5811 5814 5817 5819 5821 5823 5825 5827 5829 5830 5831 5833 5835 5836 5838 5839 5839 5840 5841 5841
5757 5756 5755 5755 5754 5755 5755 5756 5757 5758 5760 5762 5764 5767 5770 5773 5776 5780 5783 5787 5791 5794 5798 5801 5805 5808 5811 5813 5815 5817 5819 5821 5823 5825 5826 5828 5830 5831 5832 5833 5834 5835 5835
5758 5756 5754 5753 5752 5751 5751 5751 5751 5752 5753 5754 5756 5758 5761 5763 5766 5770 5773 5777 5780 5784 5788 5792 5795 5799 5802 5805 5808 5810 5812 5814 5816 5818 5820 5822 5824 5825 5827 5828 5829 5830 5830
5759 5756 5754 5751 5750 5748 5747 5746 5746 5746 5746 5747 5749 5751 5753 5755 5758 5761 5765 5768 5772 5775 5779 5783 5787 5790 5794 5797 5800 5803 5806 5808 5810 5813 5814 5816 5819 5820 5822 5823 5824 5825 5826
5759 5756 5753 5750 5747 5745 5743 5741 5740 5740 5740 5741 5742 5744 5746 5748 5751 5754 5757 5760 5764 5767 5771 5775 5779 5783 5787 5791 5794 5797 5799 5802 5805 5808 5810 5812 5814 5816 5818 5819 5820 5821 5821
5758 5755 5751 5747 5744 5741 5738 5736 5734 5733 5733 5734 5735 5737 5740 5742 5745 5748 5752 5755 5758 5762 5765 5768 5773 5777 5781 5785 5788 5792 5794 5797 5800 5803 5805 5808 5810 5812 5814 5815 5816 5817 5817
5757 5753 5749 5745 5740 5736 5733 5730 5727 5726 5726 5726 5728 5731 5734 5737 5740 5743 5747 5750 5753 5757 5760 5764 5768 5772 5776 5780 5783 5787 5790 5793 5796 5799 5801 5804 5806 5808 5810 5812 5813 5814 5814
5757 5752 5747 5742 5737 5732 5728 5724 5721 5719 5719 5720 5722 5725 5729 5733 5736 5739 5743 5747 5750 5753 5757 5761 5765 5768 5772 5776 5779 5783 5786 5790 5792 5795 5798 5801 5803 5805 5807 5809 5809 5810 5811